When you browse on this site, cookies collect data to enhance your experience and personalize the content and advertising you see.
Visit our Privacy Policy to learn more. By continuing to use the site, you agree to this use of cookies and data.
  • en France
  • Liste des pays
  • À 7 jours
  • Température de l'eau
  • Carte satellitaire
  • Carte météo
  • Widgets météo
  • user-avatar
    Se connecter

    Météo par heure à Bordeaux

    Ce jour, 24 Juillet, Mercredi

    Heure Température Précipitation Vent Pression Humidité
    00:00 +24°C° 0.1 mm 2 m/s 760 mmHg 86%
    01:00 +23°C° 0 mm 1 m/s 760 mmHg 88%
    02:00 +23°C° 0 mm 1 m/s 760 mmHg 90%
    03:00 +23°C° 0 mm 1 m/s 760 mmHg 92%
    04:00 +23°C° 0 mm 1 m/s 760 mmHg 91%
    05:00 +23°C° 0 mm 1 m/s 760 mmHg 90%
    06:00 +24°C° 0 mm 1 m/s 760 mmHg 89%
    07:00 +26°C° 0 mm 1 m/s 760 mmHg 78%
    08:00 +28°C° 0 mm 1 m/s 760 mmHg 67%
    09:00 +31°C° 0 mm 1 m/s 760 mmHg 56%
    10:00 +33°C° 0 mm 1 m/s 760 mmHg 49%
    11:00 +35°C° 0 mm 1 m/s 759 mmHg 41%
    12:00 +37°C° 0 mm 1 m/s 759 mmHg 33%
    13:00 +39°C° 0 mm 1 m/s 759 mmHg 31%
    14:00 +40°C° 0 mm 1 m/s 758 mmHg 28%
    15:00 +41°C° 0 mm 1 m/s 757 mmHg 25%
    16:00 +40°C° 0 mm 2 m/s 757 mmHg 28%
    17:00 +39°C° 0 mm 2 m/s 757 mmHg 32%
    18:00 +38°C° 0 mm 2 m/s 756 mmHg 35%
    19:00 +36°C° 0 mm 2 m/s 756 mmHg 39%
    20:00 +34°C° 0 mm 2 m/s 757 mmHg 44%
    21:00 +31°C° 0 mm 2 m/s 757 mmHg 49%
    22:00 +31°C° 0 mm 3 m/s 756 mmHg 48%
    23:00 +30°C° 0 mm 3 m/s 756 mmHg 47%

    Demain, 25 Juillet, Jeudi

    Heure Température Précipitation Vent Pression Humidité
    00:00 +30°C° 0 mm 4 m/s 756 mmHg 46%
    01:00 +29°C° 0 mm 4 m/s 756 mmHg 47%
    02:00 +28°C° 0 mm 4 m/s 756 mmHg 48%
    03:00 +27°C° 0 mm 4 m/s 756 mmHg 49%
    04:00 +27°C° 0 mm 4 m/s 756 mmHg 53%
    05:00 +27°C° 0 mm 3 m/s 756 mmHg 57%
    06:00 +26°C° 0 mm 3 m/s 756 mmHg 61%
    07:00 +29°C° 0 mm 3 m/s 756 mmHg 55%
    08:00 +31°C° 0 mm 2 m/s 756 mmHg 49%
    09:00 +34°C° 0 mm 2 m/s 757 mmHg 43%
    10:00 +36°C° 0 mm 2 m/s 757 mmHg 39%
    11:00 +37°C° 0 mm 2 m/s 756 mmHg 35%
    12:00 +39°C° 0 mm 2 m/s 756 mmHg 31%
    13:00 +38°C° 0 mm 3 m/s 756 mmHg 32%
    14:00 +38°C° 0 mm 4 m/s 756 mmHg 33%
    15:00 +37°C° 0 mm 5 m/s 756 mmHg 35%
    16:00 +35°C° 0.1 mm 4 m/s 756 mmHg 41%
    17:00 +33°C° 0.1 mm 4 m/s 756 mmHg 48%
    18:00 +30°C° 0.1 mm 4 m/s 756 mmHg 55%
    19:00 +28°C° 0.6 mm 4 m/s 756 mmHg 64%
    20:00 +25°C° 0.6 mm 3 m/s 757 mmHg 72%
    21:00 +22°C° 0.6 mm 3 m/s 757 mmHg 81%
    22:00 +22°C° 0.8 mm 4 m/s 758 mmHg 83%
    23:00 +21°C° 0.8 mm 4 m/s 758 mmHg 84%

    Après-demain, 26 Juillet, Vendredi

    Heure Température Précipitation Vent Pression Humidité
    00:00 +21°C° 0.8 mm 5 m/s 758 mmHg 86%
    01:00 +21°C° 0.3 mm 4 m/s 758 mmHg 87%
    02:00 +21°C° 0.3 mm 3 m/s 758 mmHg 88%
    03:00 +20°C° 0.3 mm 2 m/s 758 mmHg 89%
    04:00 +21°C° 1.1 mm 3 m/s 758 mmHg 90%
    05:00 +21°C° 1.1 mm 3 m/s 758 mmHg 91%
    06:00 +21°C° 1.1 mm 3 m/s 758 mmHg 92%
    07:00 +22°C° 0.4 mm 3 m/s 758 mmHg 87%
    08:00 +24°C° 0.4 mm 3 m/s 758 mmHg 82%
    09:00 +25°C° 0.4 mm 3 m/s 758 mmHg 77%
    10:00 +26°C° 0.1 mm 3 m/s 758 mmHg 72%
    11:00 +27°C° 0.1 mm 3 m/s 758 mmHg 67%
    12:00 +28°C° 0.1 mm 3 m/s 758 mmHg 62%
    13:00 +27°C° 0.1 mm 4 m/s 758 mmHg 65%
    14:00 +26°C° 0.1 mm 4 m/s 758 mmHg 69%
    15:00 +25°C° 0.1 mm 4 m/s 758 mmHg 72%
    16:00 +25°C° 0.1 mm 4 m/s 758 mmHg 74%
    17:00 +23°C° 0.1 mm 4 m/s 757 mmHg 75%
    18:00 +22°C° 0.1 mm 4 m/s 757 mmHg 76%
    19:00 +22°C° 0 mm 4 m/s 757 mmHg 79%
    20:00 +21°C° 0 mm 3 m/s 758 mmHg 82%
    21:00 +20°C° 0 mm 3 m/s 758 mmHg 85%
    22:00 +20°C° 0.1 mm 3 m/s 758 mmHg 86%
    23:00 +20°C° 0.1 mm 2 m/s 758 mmHg 86%

    27 Juillet, Samedi

    Heure Température Précipitation Vent Pression Humidité
    00:00 +19°C° 0.1 mm 2 m/s 757 mmHg 87%
    01:00 +19°C° 0 mm 2 m/s 757 mmHg 89%
    02:00 +19°C° 0 mm 2 m/s 757 mmHg 90%
    03:00 +18°C° 0 mm 2 m/s 756 mmHg 92%
    04:00 +19°C° 0 mm 2 m/s 757 mmHg 90%
    05:00 +19°C° 0 mm 2 m/s 757 mmHg 88%
    06:00 +19°C° 0 mm 3 m/s 757 mmHg 86%
    07:00 +20°C° 0.3 mm 3 m/s 757 mmHg 81%
    08:00 +21°C° 0.3 mm 4 m/s 757 mmHg 76%
    09:00 +22°C° 0.3 mm 5 m/s 757 mmHg 71%
    10:00 +23°C° 0.4 mm 4 m/s 757 mmHg 65%
    11:00 +23°C° 0.4 mm 4 m/s 757 mmHg 59%
    12:00 +25°C° 0.4 mm 4 m/s 757 mmHg 52%
    13:00 +25°C° 0 mm 5 m/s 757 mmHg 51%
    14:00 +25°C° 0 mm 5 m/s 757 mmHg 49%
    15:00 +25°C° 0 mm 5 m/s 757 mmHg 47%
    16:00 +25°C° 0 mm 5 m/s 757 mmHg 50%
    17:00 +23°C° 0 mm 5 m/s 757 mmHg 53%
    18:00 +22°C° 0 mm 5 m/s 757 mmHg 56%
    19:00 +20°C° 0 mm 4 m/s 758 mmHg 62%
    20:00 +19°C° 0 mm 3 m/s 758 mmHg 69%
    21:00 +18°C° 0 mm 2 m/s 759 mmHg 75%
    22:00 +17°C° 0 mm 2 m/s 759 mmHg 77%
    23:00 +17°C° 0 mm 2 m/s 758 mmHg 80%

    28 Juillet, Dimanche

    Heure Température Précipitation Vent Pression Humidité
    00:00 +17°C° 0 mm 2 m/s 758 mmHg 82%
    01:00 +16°C° 0 mm 2 m/s 758 mmHg 84%
    02:00 +16°C° 0 mm 2 m/s 758 mmHg 85%
    03:00 +16°C° 0 mm 1 m/s 758 mmHg 87%
    04:00 +16°C° 0 mm 2 m/s 759 mmHg 86%
    05:00 +17°C° 0 mm 2 m/s 759 mmHg 84%
    06:00 +17°C° 0 mm 2 m/s 759 mmHg 83%
    07:00 +19°C° 0.1 mm 2 m/s 759 mmHg 75%
    08:00 +21°C° 0.1 mm 3 m/s 759 mmHg 66%
    09:00 +22°C° 0.1 mm 3 m/s 760 mmHg 58%
    10:00 +24°C° 0.1 mm 3 m/s 760 mmHg 55%
    11:00 +24°C° 0.1 mm 3 m/s 760 mmHg 52%
    12:00 +25°C° 0.1 mm 4 m/s 760 mmHg 49%
    13:00 +25°C° 0 mm 4 m/s 760 mmHg 48%
    14:00 +25°C° 0 mm 4 m/s 760 mmHg 47%
    15:00 +26°C° 0 mm 4 m/s 759 mmHg 47%
    16:00 +25°C° 0 mm 4 m/s 759 mmHg 49%
    17:00 +24°C° 0 mm 3 m/s 759 mmHg 51%
    18:00 +24°C° 0 mm 3 m/s 759 mmHg 54%
    19:00 +21°C° 0 mm 3 m/s 760 mmHg 62%
    20:00 +19°C° 0 mm 2 m/s 760 mmHg 70%
    21:00 +17°C° 0 mm 2 m/s 761 mmHg 78%
    22:00 +17°C° 0 mm 2 m/s 761 mmHg 80%
    23:00 +16°C° 0 mm 2 m/s 761 mmHg 83%

    29 Juillet, Lundi

    Heure Température Précipitation Vent Pression Humidité
    00:00 +16°C° 0 mm 1 m/s 761 mmHg 86%
    01:00 +15°C° 0 mm 1 m/s 760 mmHg 87%
    02:00 +15°C° 0 mm 1 m/s 760 mmHg 88%
    03:00 +15°C° 0 mm 1 m/s 760 mmHg 89%
    04:00 +15°C° 0 mm 1 m/s 760 mmHg 86%
    05:00 +15°C° 0 mm 1 m/s 760 mmHg 83%
    06:00 +16°C° 0 mm 1 m/s 760 mmHg 81%
    07:00 +19°C° 0 mm 1 m/s 760 mmHg 70%
    08:00 +22°C° 0 mm 1 m/s 760 mmHg 60%
    09:00 +25°C° 0 mm 1 m/s 760 mmHg 50%
    10:00 +26°C° 0 mm 1 m/s 760 mmHg 44%
    11:00 +28°C° 0 mm 1 m/s 760 mmHg 38%
    12:00 +30°C° 0 mm 1 m/s 759 mmHg 31%
    13:00 +30°C° 0 mm 1 m/s 759 mmHg 29%
    14:00 +31°C° 0 mm 1 m/s 759 mmHg 27%
    15:00 +32°C° 0 mm 1 m/s 758 mmHg 25%
    16:00 +31°C° 0 mm 2 m/s 758 mmHg 29%
    17:00 +30°C° 0 mm 2 m/s 758 mmHg 33%
    18:00 +29°C° 0 mm 2 m/s 758 mmHg 37%
    19:00 +27°C° 0 mm 2 m/s 758 mmHg 44%
    20:00 +24°C° 0 mm 2 m/s 759 mmHg 51%
    21:00 +21°C° 0 mm 2 m/s 759 mmHg 58%
    22:00 +22°C° 0 mm 1 m/s 759 mmHg 62%
    23:00 +21°C° 0 mm 1 m/s 759 mmHg 65%
    Voir plus